SCP
0 0 0 0 0 0 0 0 0 0 0 0 0 0 0 0 0 0 0 -0 0 0 0 0 0 0 0 0 0 0 0 0 0 0 0 0 0 0 0 0 0 0 -0
0 0 0 0 0 0 0 0 0 0 0 0 0 0 0 0 0 0 0 0 -0 0 0 0 0 0 0 0 0 0 0 0 0 0 0 0 0 0 0 -0 -0 -0 -0
0 0 0 0 0 0 0 0 0 0 0 0 0 0 0 0 0 0 0 0 0 0 0 0 0 -0 -0 0 0 0 0 0 0 0 0 0 0 -0 -0 -0 -0 -0 -0
0 0 0 0 0 0 0 0 0 0 0 0 0 0 0 0 0 0 0 0 0 0 0 0 0 -0 -0 -0 -0 0 0 0 0 0 0 0 0 0 -0 -0 -0 -0 -0
0 0 0 0 0 0 0 0 0 0 0 0 0 0 0 0 0 0 0 0 0 0 0 0 0 -0 -0 -0 -0 -0 0 0 0 0 0 0 0 0 0 0 -0 -0 0
0 0 0 0 0 0 0 0 0 0 0 0 0 0 0 0 0 0 0 0 0 0 0 0 0 0 -0 -0 0 -0 -0 0 0 0 0 0 0 0 0 0 0 0 0
0 0 0 0 0 0 0 0 0 0 0 0 0 0 0 0 0 0 0 0 0 0 0 0 0 0 0 0 0 0 0 0 0 0 0 0 0 0 0 0 0 0 0
0 0 0 0 0 0 0 0 0 0 0 0 0 0 0 0 0 0 0 0 0 0 0 0 0 0 0 0 0 0 0 0 0 0 0 0 0 0 0 0 0 0 0
0 0 0 0 0 0 0 0 0 0 0 0 0 0 0 0 0 0 0 0 0 0 0 0 0 0 0 0 0 0 0 0 0 0 0 0 0 0 0 0 0 0 0
0 0 0 0 0 0 0 0 0 0 0 0 0 0 0 0 0 0 0 0 0 0 0 0 0 0 0 0 0 0 0 0 0 0 0 0 0 0 0 0 0 0 0
0 0 0 0 0 0 0 0 0 0 0 0 0 0 0 0 0 0 0 0 0 0 0 0 0 0 0 0 0 0 0 0 0 0 0 0 0 0 0 0 0 0 0
0 0 0 0 0 0 0 0 0 0 0 0 0 0 0 0 0 0 0 0 0 0 0 0 0 0 0 0 0 0 0 0 0 0 0 0 0 0 0 0 0 0 0
0 0 0 0 0 0 0 0 0 0 0 0 0 0 0 0 0 0 0 0 0 0 0 0 0 0 0 0 0 0 0 0 0 0 0 0 0 0 0 0 0 0 0
0 0 0 0 0 0 0 0 0 0 0 0 0 0 0 0 0 0 0 0 0 0 0 0 0 0 0 0 0 0 0 0 0 0 0 0 0 0 0 0 0 0 0
0 0 0 0 0 0 0 0 0 0 0 0 0 0 0 0 0 0 0 0 0 0 0 0 0 0 0 0 0 0 0 0 0 0 0 0 0 0 0 0 0 0 0
0 0 0 0 0 0 0 0 0 0 0 0 0 0 0 0 0 0 0 0 0 0 0 0 0 0 0 0 0 0 0 0 0 0 0 0 0 0 0 0 0 0 0
0 0 0 0 0 0 0 0 0 0 0 0 0 0 0 0 0 0 0 0 0 0 0 0 0 0 0 0 0 0 0 0 0 0 0 0 0 0 0 0 0 0 0
0 0 0 0 0 0 0 0 0 0 0 0 0 0 0 0 0 0 0 0 0 0 0 0 0 0 0 0 0 0 0 0 0 0 0 0 0 0 0 0 0 0 0
0 0 0 0 0 0 0 0 0 0 0 0 0 0 0 0 0 0 0 0 0 0 0 0 0 0 0 0 0 0 0 0 0 0 0 0 0 0 0 0 0 0 0
0 0 0 0 0 0 0 0 0 0 0 0 0 0 0 0 0 0 0 0 0 0 0 0 0 0 0 0 0 0 0 0 0 0 0 0 0 0 0 0 0 0 0
0 0 0 0 0 0 0 0 0 0 0 0 0 0 0 0 0 0 0 0 0 0 0 0 0 0 0 0 0 0 0 0 0 0 0 0 0 0 0 0 0 0 0
0 0 0 0 0 0 0 0 0 0 0 0 0 0 0 0 0 0 0 0 0 0 0 0 0 0 0 0 0 0 0 0 0 0 0 0 0 0 0 0 0 0 0
0 0 0 0 0 0 0 0 0 0 0 0 0 0 0 0 0 0 0 0 0 0 0 0 0 0 0 0 0 0 0 0 -0 0 0 0 0 0 0 0 0 0 0
0 0 0 0 0 0 0 0 0 0 0 0 0 0 0 0 0 0 0 0 0 0 0 0 0 0 0 0 0 0 0 0 -0 -0 0 0 0 -0 0 0 0 0 0
0 0 0 0 0 0 0 0 0 0 0 0 0 0 0 0 0 0 0 0 0 0 0 0 0 0 0 0 0 0 0 0 0 0 0 0 -0 0 0 0 0 0 0
0 0 0 0 0 0 0 0 0 0 0 0 0 0 0 0 0 0 0 0 0 0 0 0 0 0 0 0 0 0 0 0 0 0 0 0 0 0 0 0 0 0 0
Wind_Speed_500mb
42 33 32 33 24 19 12 10 5 3 2 4 4 2 5 5 10 10 7 11 9 8 6 7 10 13 13 11 11 14 15 10 10 9 9 11 14 18 15 10 8 2 8
41 31 27 25 23 19 13 9 8 7 6 4 1 1 3 8 12 15 9 7 7 9 10 14 14 14 13 15 14 16 20 21 19 16 14 14 15 17 16 7 2 4 9
37 27 24 21 19 16 15 11 9 7 8 7 7 9 10 9 10 12 11 14 12 12 7 13 18 19 16 15 17 20 22 25 30 24 23 18 16 15 16 10 8 10 9
34 25 23 23 20 18 15 13 12 9 6 5 6 6 8 9 9 12 12 12 15 19 21 20 20 22 18 15 19 25 28 28 34 30 28 22 16 15 14 11 12 15 15
29 23 25 24 22 19 16 14 12 9 6 4 6 8 10 13 14 15 14 14 14 14 20 27 27 26 24 30 40 38 31 35 38 33 28 25 21 18 18 13 14 17 20
26 25 26 25 23 21 17 14 11 9 8 9 12 15 17 19 20 22 21 20 21 26 22 23 27 32 35 36 39 42 36 39 39 32 27 27 24 23 25 24 17 20 24
25 27 28 27 24 21 18 16 13 12 12 15 17 20 22 23 25 25 25 26 28 28 28 27 28 29 35 37 39 39 38 38 35 33 33 34 36 32 32 31 28 27 26
21 24 27 26 26 23 20 17 16 15 16 19 21 23 24 24 24 24 26 27 27 29 31 32 32 32 32 34 41 38 38 33 35 33 35 37 37 38 39 37 37 36 34
25 24 26 28 28 26 23 21 19 18 18 19 20 21 22 23 24 24 25 25 27 28 29 31 34 36 36 36 36 35 39 38 35 36 35 39 42 45 44 40 42 44 42
28 28 29 30 30 27 25 23 22 21 19 19 19 20 21 23 23 24 25 27 28 29 29 30 31 34 37 38 40 42 41 39 38 39 39 42 44 46 43 44 46 43 48
36 34 33 32 31 29 27 25 23 21 20 19 20 20 21 21 23 26 28 28 28 31 33 34 35 36 36 37 40 42 44 47 45 41 41 45 45 46 48 50 48 49 46
37 36 35 33 33 31 28 25 24 22 21 20 21 22 23 26 28 31 31 30 31 30 32 35 37 38 40 42 42 41 42 45 49 50 50 50 48 48 51 51 55 52 50
31 34 34 33 31 30 29 26 24 23 23 23 24 24 25 27 30 33 35 36 36 35 34 35 36 38 40 42 44 45 44 43 44 46 49 54 57 57 57 55 55 56 56
37 34 34 33 32 30 28 27 27 27 27 28 28 29 29 31 34 36 37 38 39 40 40 40 40 40 40 41 44 45 46 46 45 44 44 48 51 54 57 59 60 56 52
40 37 36 34 32 30 29 28 27 28 29 31 32 32 33 35 36 38 39 40 41 42 44 44 43 42 40 40 40 40 42 44 45 45 45 46 47 48 51 53 56 61 64
41 40 39 37 35 33 30 28 28 29 32 34 34 36 37 38 40 40 40 40 42 43 44 44 43 41 39 37 34 34 34 33 34 37 39 42 44 46 48 51 54 55 59
43 43 42 40 38 35 32 31 31 32 35 37 39 40 42 42 43 42 43 43 43 42 39 37 36 36 36 35 33 29 28 28 29 30 31 32 34 37 39 42 46 52 58
41 46 46 46 42 38 35 34 33 35 37 39 40 42 43 45 46 46 46 45 42 39 35 31 30 29 31 32 29 26 25 25 25 26 28 29 32 34 36 40 45 48 52
39 47 50 48 45 41 38 35 35 37 39 41 44 44 44 45 45 46 47 44 38 32 31 30 29 31 28 27 26 23 21 21 21 20 20 22 25 29 32 35 39 44 48
39 44 48 49 47 42 38 36 38 40 42 45 45 45 45 44 44 44 43 40 35 31 30 29 27 27 29 27 22 19 17 16 15 15 16 18 21 26 34 40 46 50 54
30 38 46 46 43 39 37 37 41 43 44 47 47 45 44 43 43 42 40 36 34 31 28 26 24 23 24 25 24 19 13 10 9 8 9 31 27 27 33 41 47 55 60
14 26 33 36 36 37 39 43 45 46 45 42 42 44 45 45 43 40 37 35 32 27 25 25 24 21 21 22 22 24 6 14 7 19 27 23 38 33 42 42 47 51 55
11 18 25 30 35 39 43 46 44 41 41 43 44 45 46 45 43 38 34 31 28 25 24 22 24 22 19 16 18 10 9 7 41 14 28 35 39 43 46 50 56 59 59
21 26 31 36 39 40 39 40 43 46 47 46 45 45 44 43 39 35 31 29 27 25 24 21 22 21 20 18 13 12 13 21 16 28 36 50 47 47 46 49 52 55 61
22 26 30 33 36 39 43 44 45 46 46 45 43 41 39 38 35 32 29 27 26 25 24 23 22 22 22 19 19 21 23 24 23 20 38 69 64 51 54 56 58 59 57
23 27 30 33 36 40 42 42 41 40 40 40 37 36 34 33 31 30 27 27 27 26 24 23 23 23 22 21 21 22 26 20 25 30 44 64 71 68 64 57 60 57 54
Wind_Direction_500mb
182 186 192 194 188 192 193 194 189 178 139 145 163 186 235 245 246 240 225 179 158 198 258 268 264 234 241 253 262 261 257 258 250 249 268 295 314 327 321 331 330 307 167
184 186 195 195 189 196 191 215 215 201 189 186 185 269 219 226 236 248 253 244 178 128 189 216 224 234 244 259 261 261 260 254 257 259 271 287 309 319 321 293 260 202 165
184 190 191 193 196 191 194 203 203 212 230 247 266 279 278 276 276 273 254 258 254 249 175 196 214 224 234 247 261 270 265 264 261 263 268 280 288 297 307 287 220 209 204
181 189 192 192 196 195 191 193 198 208 214 239 267 284 292 293 291 291 288 267 256 258 260 249 239 247 250 259 266 275 268 268 266 259 263 271 270 275 296 291 239 217 217
179 191 192 191 195 193 191 196 201 212 233 267 293 291 298 300 303 300 300 290 292 276 262 264 261 258 257 258 262 262 270 271 262 261 260 262 256 255 263 278 248 230 229
180 190 195 197 195 191 192 199 208 225 255 280 293 303 303 299 297 299 297 289 276 281 279 273 263 261 257 252 249 252 253 244 250 255 257 252 253 253 254 257 260 243 232
190 193 198 202 202 198 200 209 223 243 266 287 296 298 298 299 299 296 290 284 279 275 274 268 264 262 257 254 257 260 253 243 244 245 249 246 256 257 254 254 257 257 250
207 210 211 209 211 214 217 227 243 261 278 286 293 297 299 301 299 297 295 293 287 284 281 279 274 268 263 260 260 263 267 259 246 249 246 249 252 253 255 249 252 256 254
208 216 218 217 220 224 231 242 256 270 279 283 287 292 299 301 300 298 295 292 292 291 286 281 278 273 269 265 264 266 264 265 264 258 254 251 250 251 253 258 254 252 256
212 215 219 222 225 231 240 251 261 268 277 286 294 297 298 300 303 305 303 301 297 292 288 284 281 277 274 271 266 262 262 267 264 261 260 256 253 252 254 255 255 260 257
214 219 222 224 230 238 245 252 261 270 277 285 293 298 301 303 304 305 305 303 298 294 292 287 283 281 280 277 273 268 264 262 261 261 262 263 263 260 259 259 253 250 258
225 226 226 228 233 240 249 257 264 271 279 286 292 297 302 307 310 309 306 302 298 294 290 288 286 281 277 275 275 274 269 266 264 262 261 264 266 268 266 265 266 264 260
243 238 238 237 241 244 248 255 264 272 277 281 284 288 293 299 303 305 304 302 299 295 291 287 285 282 279 275 271 271 271 269 267 266 265 264 265 267 270 272 266 266 266
241 242 242 243 245 248 253 259 264 268 273 277 280 285 291 297 301 303 300 298 297 296 294 291 287 283 279 275 272 270 269 269 269 269 269 270 270 269 268 268 271 272 275
243 243 244 245 250 253 261 268 271 273 273 276 281 284 288 293 296 298 297 297 297 296 294 292 290 287 282 278 276 273 270 270 271 271 271 271 273 275 275 275 272 268 267
247 244 243 244 245 253 263 270 277 281 283 281 281 283 288 292 295 295 294 295 295 294 292 291 289 286 284 281 277 276 275 274 273 272 271 272 274 276 277 278 278 277 273
252 246 247 247 248 252 257 264 273 280 283 283 284 288 291 294 296 297 298 298 297 294 291 288 288 289 288 287 286 281 279 279 278 277 275 275 278 280 281 281 280 279 278
242 241 241 241 243 245 247 255 267 278 281 281 283 287 290 294 295 297 299 300 300 297 294 291 287 285 286 286 287 289 288 284 281 281 283 283 281 282 285 285 285 286 285
233 235 236 236 238 242 246 256 269 279 282 282 285 286 288 290 292 295 297 299 298 296 296 295 296 295 291 288 289 289 286 283 284 283 282 286 290 293 296 298 297 295 291
223 223 228 230 232 237 245 258 271 280 283 284 283 283 284 286 289 292 294 294 294 297 297 297 299 301 302 305 305 300 288 276 270 271 280 291 300 303 303 304 305 305 304
211 213 218 223 229 238 249 263 275 281 283 283 282 282 283 285 287 289 288 288 291 293 293 293 294 296 297 305 312 309 282 252 251 266 322 316 305 312 311 313 311 308 305
202 206 214 223 232 244 258 270 277 281 280 277 277 280 283 284 284 284 284 286 287 289 290 292 292 294 303 316 330 330 327 297 261 306 313 319 316 315 315 311 311 309 306
189 204 219 233 247 259 267 273 276 276 277 278 279 280 280 280 280 280 281 281 282 282 283 287 290 298 306 319 334 343 337 308 313 281 310 317 310 313 311 315 314 314 314
243 244 250 256 262 267 270 272 275 278 279 279 278 277 276 276 276 276 276 276 277 277 280 284 291 298 303 309 308 306 300 298 323 313 306 309 307 307 307 307 313 321 321
255 255 257 261 266 271 274 277 278 279 279 278 276 274 273 272 272 271 270 272 273 273 275 280 285 288 290 296 301 309 309 308 305 287 305 305 307 315 319 324 331 332 333
266 266 267 269 272 275 277 279 279 279 279 278 275 272 268 267 267 266 268 269 269 269 272 275 279 282 287 291 295 299 293 293 292 296 296 300 305 318 319 325 335 341 340
Wind_Speed_850mb
42 33 32 33 24 19 12 10 5 3 2 4 4 2 5 5 10 10 7 11 9 8 6 7 10 13 13 11 11 14 15 10 10 9 9 11 14 18 15 10 8 2 8
41 31 27 25 23 19 13 9 8 7 6 4 1 1 3 8 12 15 9 7 7 9 10 14 14 14 13 15 14 16 20 21 19 16 14 14 15 17 16 7 2 4 9
37 27 24 21 19 16 15 11 9 7 8 7 7 9 10 9 10 12 11 14 12 12 7 13 18 19 16 15 17 20 22 25 30 24 23 18 16 15 16 10 8 10 9
34 25 23 23 20 18 15 13 12 9 6 5 6 6 8 9 9 12 12 12 15 19 21 20 20 22 18 15 19 25 28 28 34 30 28 22 16 15 14 11 12 15 15
29 23 25 24 22 19 16 14 12 9 6 4 6 8 10 13 14 15 14 14 14 14 20 27 27 26 24 30 40 38 31 35 38 33 28 25 21 18 18 13 14 17 20
26 25 26 25 23 21 17 14 11 9 8 9 12 15 17 19 20 22 21 20 21 26 22 23 27 32 35 36 39 42 36 39 39 32 27 27 24 23 25 24 17 20 24
25 27 28 27 24 21 18 16 13 12 12 15 17 20 22 23 25 25 25 26 28 28 28 27 28 29 35 37 39 39 38 38 35 33 33 34 36 32 32 31 28 27 26
21 24 27 26 26 23 20 17 16 15 16 19 21 23 24 24 24 24 26 27 27 29 31 32 32 32 32 34 41 38 38 33 35 33 35 37 37 38 39 37 37 36 34
25 24 26 28 28 26 23 21 19 18 18 19 20 21 22 23 24 24 25 25 27 28 29 31 34 36 36 36 36 35 39 38 35 36 35 39 42 45 44 40 42 44 42
28 28 29 30 30 27 25 23 22 21 19 19 19 20 21 23 23 24 25 27 28 29 29 30 31 34 37 38 40 42 41 39 38 39 39 42 44 46 43 44 46 43 48
36 34 33 32 31 29 27 25 23 21 20 19 20 20 21 21 23 26 28 28 28 31 33 34 35 36 36 37 40 42 44 47 45 41 41 45 45 46 48 50 48 49 46
37 36 35 33 33 31 28 25 24 22 21 20 21 22 23 26 28 31 31 30 31 30 32 35 37 38 40 42 42 41 42 45 49 50 50 50 48 48 51 51 55 52 50
31 34 34 33 31 30 29 26 24 23 23 23 24 24 25 27 30 33 35 36 36 35 34 35 36 38 40 42 44 45 44 43 44 46 49 54 57 57 57 55 55 56 56
37 34 34 33 32 30 28 27 27 27 27 28 28 29 29 31 34 36 37 38 39 40 40 40 40 40 40 41 44 45 46 46 45 44 44 48 51 54 57 59 60 56 52
40 37 36 34 32 30 29 28 27 28 29 31 32 32 33 35 36 38 39 40 41 42 44 44 43 42 40 40 40 40 42 44 45 45 45 46 47 48 51 53 56 61 64
41 40 39 37 35 33 30 28 28 29 32 34 34 36 37 38 40 40 40 40 42 43 44 44 43 41 39 37 34 34 34 33 34 37 39 42 44 46 48 51 54 55 59
43 43 42 40 38 35 32 31 31 32 35 37 39 40 42 42 43 42 43 43 43 42 39 37 36 36 36 35 33 29 28 28 29 30 31 32 34 37 39 42 46 52 58
41 46 46 46 42 38 35 34 33 35 37 39 40 42 43 45 46 46 46 45 42 39 35 31 30 29 31 32 29 26 25 25 25 26 28 29 32 34 36 40 45 48 52
39 47 50 48 45 41 38 35 35 37 39 41 44 44 44 45 45 46 47 44 38 32 31 30 29 31 28 27 26 23 21 21 21 20 20 22 25 29 32 35 39 44 48
39 44 48 49 47 42 38 36 38 40 42 45 45 45 45 44 44 44 43 40 35 31 30 29 27 27 29 27 22 19 17 16 15 15 16 18 21 26 34 40 46 50 54
30 38 46 46 43 39 37 37 41 43 44 47 47 45 44 43 43 42 40 36 34 31 28 26 24 23 24 25 24 19 13 10 9 8 9 31 27 27 33 41 47 55 60
14 26 33 36 36 37 39 43 45 46 45 42 42 44 45 45 43 40 37 35 32 27 25 25 24 21 21 22 22 24 6 14 7 19 27 23 38 33 42 42 47 51 55
11 18 25 30 35 39 43 46 44 41 41 43 44 45 46 45 43 38 34 31 28 25 24 22 24 22 19 16 18 10 9 7 41 14 28 35 39 43 46 50 56 59 59
21 26 31 36 39 40 39 40 43 46 47 46 45 45 44 43 39 35 31 29 27 25 24 21 22 21 20 18 13 12 13 21 16 28 36 50 47 47 46 49 52 55 61
22 26 30 33 36 39 43 44 45 46 46 45 43 41 39 38 35 32 29 27 26 25 24 23 22 22 22 19 19 21 23 24 23 20 38 69 64 51 54 56 58 59 57
23 27 30 33 36 40 42 42 41 40 40 40 37 36 34 33 31 30 27 27 27 26 24 23 23 23 22 21 21 22 26 20 25 30 44 64 71 68 64 57 60 57 54
Wind_Direction_850mb
182 186 192 194 188 192 193 194 189 178 139 145 163 186 235 245 246 240 225 179 158 198 258 268 264 234 241 253 262 261 257 258 250 249 268 295 314 327 321 331 330 307 167
184 186 195 195 189 196 191 215 215 201 189 186 185 269 219 226 236 248 253 244 178 128 189 216 224 234 244 259 261 261 260 254 257 259 271 287 309 319 321 293 260 202 165
184 190 191 193 196 191 194 203 203 212 230 247 266 279 278 276 276 273 254 258 254 249 175 196 214 224 234 247 261 270 265 264 261 263 268 280 288 297 307 287 220 209 204
181 189 192 192 196 195 191 193 198 208 214 239 267 284 292 293 291 291 288 267 256 258 260 249 239 247 250 259 266 275 268 268 266 259 263 271 270 275 296 291 239 217 217
179 191 192 191 195 193 191 196 201 212 233 267 293 291 298 300 303 300 300 290 292 276 262 264 261 258 257 258 262 262 270 271 262 261 260 262 256 255 263 278 248 230 229
180 190 195 197 195 191 192 199 208 225 255 280 293 303 303 299 297 299 297 289 276 281 279 273 263 261 257 252 249 252 253 244 250 255 257 252 253 253 254 257 260 243 232
190 193 198 202 202 198 200 209 223 243 266 287 296 298 298 299 299 296 290 284 279 275 274 268 264 262 257 254 257 260 253 243 244 245 249 246 256 257 254 254 257 257 250
207 210 211 209 211 214 217 227 243 261 278 286 293 297 299 301 299 297 295 293 287 284 281 279 274 268 263 260 260 263 267 259 246 249 246 249 252 253 255 249 252 256 254
208 216 218 217 220 224 231 242 256 270 279 283 287 292 299 301 300 298 295 292 292 291 286 281 278 273 269 265 264 266 264 265 264 258 254 251 250 251 253 258 254 252 256
212 215 219 222 225 231 240 251 261 268 277 286 294 297 298 300 303 305 303 301 297 292 288 284 281 277 274 271 266 262 262 267 264 261 260 256 253 252 254 255 255 260 257
214 219 222 224 230 238 245 252 261 270 277 285 293 298 301 303 304 305 305 303 298 294 292 287 283 281 280 277 273 268 264 262 261 261 262 263 263 260 259 259 253 250 258
225 226 226 228 233 240 249 257 264 271 279 286 292 297 302 307 310 309 306 302 298 294 290 288 286 281 277 275 275 274 269 266 264 262 261 264 266 268 266 265 266 264 260
243 238 238 237 241 244 248 255 264 272 277 281 284 288 293 299 303 305 304 302 299 295 291 287 285 282 279 275 271 271 271 269 267 266 265 264 265 267 270 272 266 266 266
241 242 242 243 245 248 253 259 264 268 273 277 280 285 291 297 301 303 300 298 297 296 294 291 287 283 279 275 272 270 269 269 269 269 269 270 270 269 268 268 271 272 275
243 243 244 245 250 253 261 268 271 273 273 276 281 284 288 293 296 298 297 297 297 296 294 292 290 287 282 278 276 273 270 270 271 271 271 271 273 275 275 275 272 268 267
247 244 243 244 245 253 263 270 277 281 283 281 281 283 288 292 295 295 294 295 295 294 292 291 289 286 284 281 277 276 275 274 273 272 271 272 274 276 277 278 278 277 273
252 246 247 247 248 252 257 264 273 280 283 283 284 288 291 294 296 297 298 298 297 294 291 288 288 289 288 287 286 281 279 279 278 277 275 275 278 280 281 281 280 279 278
242 241 241 241 243 245 247 255 267 278 281 281 283 287 290 294 295 297 299 300 300 297 294 291 287 285 286 286 287 289 288 284 281 281 283 283 281 282 285 285 285 286 285
233 235 236 236 238 242 246 256 269 279 282 282 285 286 288 290 292 295 297 299 298 296 296 295 296 295 291 288 289 289 286 283 284 283 282 286 290 293 296 298 297 295 291
223 223 228 230 232 237 245 258 271 280 283 284 283 283 284 286 289 292 294 294 294 297 297 297 299 301 302 305 305 300 288 276 270 271 280 291 300 303 303 304 305 305 304
211 213 218 223 229 238 249 263 275 281 283 283 282 282 283 285 287 289 288 288 291 293 293 293 294 296 297 305 312 309 282 252 251 266 322 316 305 312 311 313 311 308 305
202 206 214 223 232 244 258 270 277 281 280 277 277 280 283 284 284 284 284 286 287 289 290 292 292 294 303 316 330 330 327 297 261 306 313 319 316 315 315 311 311 309 306
189 204 219 233 247 259 267 273 276 276 277 278 279 280 280 280 280 280 281 281 282 282 283 287 290 298 306 319 334 343 337 308 313 281 310 317 310 313 311 315 314 314 314
243 244 250 256 262 267 270 272 275 278 279 279 278 277 276 276 276 276 276 276 277 277 280 284 291 298 303 309 308 306 300 298 323 313 306 309 307 307 307 307 313 321 321
255 255 257 261 266 271 274 277 278 279 279 278 276 274 273 272 272 271 270 272 273 273 275 280 285 288 290 296 301 309 309 308 305 287 305 305 307 315 319 324 331 332 333
266 266 267 269 272 275 277 279 279 279 279 278 275 272 268 267 267 266 268 269 269 269 272 275 279 282 287 291 295 299 293 293 292 296 296 300 305 318 319 325 335 341 340